Location: ????
(33.1659°N, 35.6604°E)
Time: 00:03:25
(UTC+00:00)

SAR-Lupe-2 - Pass Details

Date: 20 September 2019
Orbit: 481 x 485 km, 98.2° (Epoch: 07 October)

Event Time Altitude Azimuth Distance (km) Brightness Sun altitude
Rises 16:50:20 0° 10° (N) 2,550 7.3 -16.0°
Reaches altitude 10° 16:52:25 10° 9° (N) 1,666 6.3 -16.4°
Maximum altitude 16:55:59 77° 283° (WNW) 498 3.6 -17.1°
Drops below altitude 10° 16:59:31 10° 198° (SSW) 1,651 6.3 -17.8°
Sets 17:01:34 0° 196° (SSW) 2,525 7.2 -18.2°
